Tracking 19800 objects as of 24-Jul-2019
HD Live streaming from Space Station
objects crossing your sky now

COSMOS 1275 DEB

Track COSMOS 1275 DEB now!
10-day predictions


NORAD ID: 18902
Int'l Code: 1981-053MG
Perigee: 799.4 km
Apogee: 822.2 km
Inclination: 83.0 °
Period: 101.0 minutes
Semi major axis: 7181 km
RCS: 0.0086 m2 (small)
Launch date: June 4, 1981
Source: Commonwealth of Independent States (former USSR) (CIS)
Launch site: PLESETSK MISSILE AND SPACE COMPLEX (PKMTR)

Note: This is SATELLITE DEBRIS
aabbcc
Your satellite tracking list
Your tracking list is empty




NASA's NSSDC Master Catalog

Two Line Element Set (TLE):
1 18902U 81053MB  19204.41293247  .00000636  00000-0  25683-3 0  9997
2 18902  82.9550 199.4800 0015846 112.8227 247.4634 14.26432104347178
Source of the keplerian elements: AFSPC